Hourly Data Report for October 30, 2015

All times are specified in Local Standard Time (LST). Add 1 hour to adjust for Daylight Saving Time where and when it is observed.

EUREKA CLIMATE
NUNAVUT

79°59'21.000" N
85°56'02.000" W
10.00 m
2401199
71613
NEK

Download Data

Hourly Data (October 2015)
Hourly Data Report for October 30, 2015
Temp Definition
°C
Dew Point Temp Definition
°C
Rel Hum Definition
%
Wind Dir Definition
10's deg

Wind Spd Definition
km/h
Visibility Definition
km
Stn Press Definition
kPa
Hmdx Definition


Wind Chill Definition


Weather Definition


TIME
00:00 -30.9 -33.8 75 11 8   100.82   -39 LegendNANA
01:00 -29.4 -32.1 78 10 5   100.76   -35 LegendNANA
02:00 -30.7 -33.7 75 12 5   100.72   -36 LegendNANA
03:00 -27.6 -30.4 77 36 12   100.63   -37 LegendNANA
04:00 -21.9 -23.9 84 28 23   100.57   -34 LegendNANA
05:00 -21.5 -23.6 83 29 25   100.49   -34 LegendNANA
06:00 -20.7 -22.7 84 29 22   100.43   -32 LegendNANA
07:00 -21.1 -23.2 83 29 36   100.31   -35 LegendNANA
08:00 -21.0 -23.3 82 30 31   100.27   -34 LegendNANA
09:00 -20.4 -22.8 81 29 29   100.19   -33 LegendNANA
10:00 -20.2 -22.8 80 28 32   100.15   -33 LegendNANA
11:00 -19.7 -22.3 80 28 29   100.13   -32 LegendNANA
12:00 -19.3 -21.8 80 29 24   100.13   -31 LegendNANA
13:00 -19.2 -21.3 84 29 27   100.11   -31 LegendNANA
14:00 -18.8 -20.5 86 29 22   100.10   -29 LegendNANA
15:00 -18.5 -20.3 86 29 18   100.09   -28 LegendNANA
16:00 -18.6 -20.2 87 31 7   100.08   -24 LegendNANA
17:00 -20.3 -22.0 86 12 21   100.10   -31 LegendNANA
18:00 -20.0 -21.8 86 13 15   100.13   -29 LegendNANA
19:00 -20.1 -21.8 86 8 6   100.14   -25 LegendNANA
20:00 -19.8 -21.5 86 13 9   100.12   -27 LegendNANA
21:00 -20.3 -22.1 86 11 11   100.10   -28 LegendNANA
22:00 -20.5 -22.2 86 11 11   100.09   -28 LegendNANA
23:00 -20.4 -22.1 86 12 11   100.07   -28 LegendNANA

Notes on Data Quality.

Legend

  • E = Estimated
  • M = Missing
  • NA = Not Available
  • ‡ = Partner data that is not subject to review by the National Climate Archives
Date modified: